| time (UTC) | temp F | wind direction | speed MPH | gust MPH | rain 1hr in | rain 24hr in | rain mn in | humidity % | barometer mb |
| 20260502230058 | 72 | 248 | 3.0 | 9.0 | 0.00 | 0.27 | 0.26 | 44 | 1012.3 |
| 20260502225517 | 72 | 225 | 3.0 | 9.0 | 0.00 | 0.27 | 0.26 | 46 | 1012.3 |
| 20260502225017 | 72 | 225 | 4.0 | 12.0 | 0.00 | 0.27 | 0.26 | 45 | 1012.3 |
| 20260502224537 | 73 | 248 | 3.0 | 11.0 | 0.00 | 0.27 | 0.26 | 45 | 1012.3 |
| 20260502224017 | 73 | 225 | 4.0 | 10.0 | 0.00 | 0.27 | 0.26 | 48 | 1012.2 |
| 20260502223520 | 73 | 225 | 3.0 | 8.0 | 0.00 | 0.27 | 0.26 | 46 | 1012.2 |
| 20260502223019 | 73 | 248 | 3.0 | 8.0 | 0.00 | 0.27 | 0.26 | 48 | 1012.2 |
| 20260502222537 | 73 | 225 | 4.0 | 10.0 | 0.00 | 0.27 | 0.26 | 47 | 1012.2 |
| 20260502222022 | 74 | 225 | 4.0 | 9.0 | 0.00 | 0.27 | 0.26 | 47 | 1012.1 |
| 20260502221517 | 74 | 248 | 3.0 | 11.0 | 0.00 | 0.27 | 0.26 | 46 | 1012.0 |
| 20260502221017 | 74 | 248 | 2.0 | 4.0 | 0.00 | 0.27 | 0.26 | 48 | 1011.9 |
| 20260502220517 | 74 | 248 | 2.0 | 8.0 | 0.00 | 0.27 | 0.26 | 51 | 1012.0 |
| 20260502220017 | 73 | 248 | 2.0 | 6.0 | 0.00 | 0.27 | 0.26 | 50 | 1011.9 |
| 20260502215517 | 73 | 248 | 2.0 | 7.0 | 0.00 | 0.27 | 0.26 | 50 | 1011.8 |
| 20260502215017 | 72 | 248 | 3.0 | 8.0 | 0.00 | 0.27 | 0.26 | 50 | 1011.7 |
| 20260502214537 | 72 | 248 | 4.0 | 9.0 | 0.00 | 0.27 | 0.26 | 48 | 1011.8 |
| 20260502214017 | 72 | 248 | 4.0 | 11.0 | 0.00 | 0.27 | 0.26 | 49 | 1011.7 |
| 20260502213517 | 73 | 225 | 2.0 | 10.0 | 0.00 | 0.27 | 0.26 | 51 | 1011.7 |
| 20260502213017 | 73 | 225 | 4.0 | 15.0 | 0.00 | 0.27 | 0.26 | 51 | 1011.7 |
| 20260502212537 | 72 | 225 | 1.0 | 3.0 | 0.00 | 0.27 | 0.26 | 54 | 1011.5 |
| 20260502212017 | 72 | 225 | 1.0 | 6.0 | 0.00 | 0.27 | 0.26 | 57 | 1011.5 |
| 20260502211517 | 72 | 248 | 0.0 | 2.0 | 0.00 | 0.27 | 0.26 | 58 | 1011.6 |
| 20260502211017 | 73 | 180 | 0.0 | 1.0 | 0.00 | 0.27 | 0.26 | 57 | 1011.6 |
| 20260502210517 | 73 | 68 | 0.0 | 3.0 | 0.00 | 0.27 | 0.26 | 57 | 1011.6 |
| 20260502210017 | 73 | 225 | 1.0 | 5.0 | 0.00 | 0.27 | 0.26 | 56 | 1011.6 |
| 20260502205517 | 72 | 248 | 2.0 | 5.0 | 0.00 | 0.27 | 0.26 | 56 | 1011.6 |
| 20260502205037 | 71 | 248 | 1.0 | 4.0 | 0.00 | 0.27 | 0.26 | 57 | 1011.8 |
| 20260502204517 | 71 | 270 | 1.0 | 5.0 | 0.00 | 0.27 | 0.26 | 59 | 1011.9 |
| 20260502204018 | 70 | 248 | 1.0 | 6.0 | 0.00 | 0.27 | 0.26 | 63 | 1011.8 |
| 20260502203517 | 70 | 248 | 2.0 | 6.0 | 0.00 | 0.27 | 0.26 | 60 | 1011.8 |
| 20260502203017 | 70 | 225 | 1.0 | 3.0 | 0.00 | 0.27 | 0.26 | 61 | 1011.9 |
| 20260502202517 | 70 | 248 | 2.0 | 9.0 | 0.00 | 0.27 | 0.26 | 58 | 1011.9 |
| 20260502202037 | 71 | 248 | 3.0 | 8.0 | 0.00 | 0.27 | 0.26 | 55 | 1011.9 |
| 20260502201537 | 72 | 225 | 3.0 | 11.0 | 0.00 | 0.27 | 0.26 | 54 | 1011.9 |
| 20260502201017 | 72 | 225 | 3.0 | 9.0 | 0.00 | 0.27 | 0.26 | 58 | 1011.9 |
| 20260502200557 | 71 | 248 | 2.0 | 8.0 | 0.00 | 0.27 | 0.26 | 61 | 1011.8 |
| 20260502200017 | 70 | 270 | 0.0 | 3.0 | 0.00 | 0.27 | 0.26 | 65 | 1011.8 |
| 20260502195517 | 70 | 248 | 1.0 | 4.0 | 0.00 | 0.27 | 0.26 | 63 | 1011.9 |
| 20260502195019 | 70 | 113 | 0.0 | 3.0 | 0.00 | 0.27 | 0.26 | 64 | 1011.9 |
| 20260502194517 | 70 | 248 | 1.0 | 4.0 | 0.00 | 0.27 | 0.26 | 63 | 1011.9 |
| 20260502194017 | 71 | 135 | 0.0 | 3.0 | 0.00 | 0.27 | 0.26 | 62 | 1011.9 |
| 20260502193517 | 71 | 203 | 0.0 | 2.0 | 0.00 | 0.27 | 0.26 | 64 | 1011.9 |
| 20260502193044 | 71 | 248 | 1.0 | 3.0 | 0.00 | 0.27 | 0.26 | 62 | 1012.0 |
| 20260502192517 | 71 | 270 | 2.0 | 6.0 | 0.00 | 0.27 | 0.26 | 63 | 1012.0 |
| 20260502192037 | 70 | 225 | 3.0 | 9.0 | 0.00 | 0.27 | 0.26 | 62 | 1012.0 |
| 20260502191517 | 71 | 225 | 3.0 | 8.0 | 0.00 | 0.27 | 0.26 | 61 | 1011.9 |
| 20260502191017 | 71 | 225 | 1.0 | 3.0 | 0.00 | 0.27 | 0.26 | 64 | 1012.0 |
| 20260502190517 | 71 | 248 | 3.0 | 7.0 | 0.00 | 0.27 | 0.26 | 63 | 1012.0 |
| 20260502190017 | 71 | 225 | 1.0 | 4.0 | 0.00 | 0.27 | 0.26 | 63 | 1012.1 |
| 20260502185517 | 71 | 225 | 2.0 | 9.0 | 0.00 | 0.27 | 0.26 | 66 | 1012.1 |
| 20260502185017 | 71 | 113 | 1.0 | 3.0 | 0.00 | 0.27 | 0.26 | 64 | 1012.2 |
| 20260502184516 | 70 | 248 | 1.0 | 4.0 | 0.00 | 0.27 | 0.26 | 67 | 1012.4 |
| 20260502184017 | 70 | 203 | 1.0 | 5.0 | 0.00 | 0.27 | 0.26 | 65 | 1012.3 |
| 20260502183519 | 70 | 225 | 1.0 | 3.0 | 0.01 | 0.27 | 0.26 | 68 | 1012.4 |
| 20260502183157 | 69 | 225 | 1.0 | 4.0 | 0.01 | 0.27 | 0.26 | 64 | 1012.5 |
| 20260502182516 | 69 | 248 | 3.0 | 7.0 | 0.01 | 0.27 | 0.26 | 65 | 1012.6 |
| 20260502182016 | 69 | 225 | 1.0 | 5.0 | 0.01 | 0.27 | 0.26 | 69 | 1012.7 |
| 20260502181536 | 69 | 248 | 2.0 | 7.0 | 0.01 | 0.27 | 0.26 | 66 | 1012.7 |
| 20260502181017 | 69 | 225 | 2.0 | 8.0 | 0.01 | 0.27 | 0.26 | 65 | 1012.7 |
| 20260502180517 | 68 | 225 | 2.0 | 9.0 | 0.01 | 0.27 | 0.26 | 68 | 1012.7 |
| 20260502164016 | 63 | 248 | 3.0 | 7.0 | 0.00 | 0.26 | 0.25 | 84 | 1013.3 |
| 20260502163536 | 63 | 248 | 1.0 | 5.0 | 0.00 | 0.26 | 0.25 | 89 | 1013.3 |
| 20260502163036 | 63 | 248 | 1.0 | 4.0 | 0.00 | 0.26 | 0.25 | 89 | 1013.4 |
| 20260502162537 | 63 | 248 | 1.0 | 6.0 | 0.00 | 0.26 | 0.25 | 87 | 1013.5 |
| 20260502162016 | 62 | 248 | 1.0 | 3.0 | 0.00 | 0.26 | 0.25 | 87 | 1013.3 |
| 20260502161536 | 62 | 248 | 1.0 | 4.0 | 0.00 | 0.26 | 0.25 | 90 | 1013.3 |
| 20260502161016 | 62 | 270 | 0.0 | 3.0 | 0.00 | 0.26 | 0.25 | 91 | 1013.0 |
| 20260502160516 | 62 | 270 | 0.0 | 1.0 | 0.00 | 0.26 | 0.25 | 92 | 1013.0 |
| 20260502152016 | 60 | 48 | 0.0 | 0.0 | 0.00 | 0.26 | 0.25 | 94 | 1012.4 |
| 20260502151516 | 60 | 45 | 0.0 | 1.0 | 0.00 | 0.26 | 0.25 | 94 | 1012.8 |
| 20260502151018 | 60 | 248 | 1.0 | 4.0 | 0.00 | 0.26 | 0.25 | 95 | 1013.1 |
| 20260502150518 | 60 | 248 | 1.0 | 4.0 | 0.00 | 0.26 | 0.25 | 96 | 1013.1 |
| 20260502130515 | 57 | 315 | 0.0 | 1.0 | 0.00 | 0.25 | 0.24 | 97 | 1013.1 |
| 20260502123515 | 56 | 248 | 0.0 | 1.0 | 0.00 | 0.25 | 0.24 | 97 | 1013.7 |
| 20260502123016 | 56 | 257 | 0.0 | 0.0 | 0.00 | 0.25 | 0.24 | 96 | 1013.4 |
| 20260502122516 | 56 | 248 | 1.0 | 3.0 | 0.00 | 0.25 | 0.24 | 96 | 1013.3 |
| 20260502122015 | 56 | 248 | 1.0 | 3.0 | 0.00 | 0.25 | 0.24 | 97 | 1013.2 |
| 20260502121537 | 56 | 270 | 0.0 | 2.0 | 0.00 | 0.25 | 0.24 | 97 | 1012.7 |
| 20260502121017 | 56 | 266 | 0.0 | 0.0 | 0.00 | 0.25 | 0.24 | 97 | 1012.7 |
| 20260502120538 | 56 | 248 | 0.0 | 2.0 | 0.00 | 0.25 | 0.24 | 96 | 1012.8 |
| 20260502115517 | 56 | 59 | 0.0 | 0.0 | 0.00 | 0.25 | 0.24 | 97 | 1013.1 |
| 20260502115021 | 56 | 63 | 0.0 | 0.0 | 0.00 | 0.25 | 0.24 | 97 | 1013.0 |
| 20260502114537 | 56 | 63 | 0.0 | 0.0 | 0.00 | 0.25 | 0.24 | 97 | 1012.3 |
| 20260502114017 | 56 | 63 | 0.0 | 0.0 | 0.00 | 0.25 | 0.24 | 97 | 1011.8 |
| 20260502113517 | 56 | 63 | 0.0 | 0.0 | 0.00 | 0.25 | 0.24 | 96 | 1011.5 |
| 20260502113037 | 56 | 68 | 0.0 | 1.0 | 0.00 | 0.25 | 0.24 | 96 | 1011.3 |
| 20260502112538 | 56 | 257 | 0.0 | 0.0 | 0.01 | 0.25 | 0.24 | 96 | 1011.8 |
| 20260502112017 | 56 | 271 | 0.0 | 0.0 | 0.01 | 0.25 | 0.24 | 96 | 1012.1 |
| 20260502111517 | 55 | 257 | 0.0 | 0.0 | 0.01 | 0.25 | 0.24 | 96 | 1012.5 |
| 20260502111057 | 55 | 248 | 0.0 | 1.0 | 0.01 | 0.25 | 0.24 | 96 | 1012.7 |
| 20260502110517 | 55 | 248 | 0.0 | 1.0 | 0.01 | 0.25 | 0.24 | 96 | 1012.8 |
| 20260502110017 | 55 | 248 | 1.0 | 3.0 | 0.01 | 0.25 | 0.24 | 96 | 1012.9 |
| 20260502105517 | 55 | 248 | 1.0 | 3.0 | 0.01 | 0.25 | 0.24 | 96 | 1012.8 |
| 20260502105017 | 55 | 248 | 1.0 | 3.0 | 0.01 | 0.25 | 0.24 | 96 | 1012.6 |
| 20260502104517 | 55 | 270 | 1.0 | 3.0 | 0.01 | 0.25 | 0.24 | 96 | 1012.6 |
| 20260502104017 | 55 | 248 | 1.0 | 3.0 | 0.01 | 0.25 | 0.24 | 96 | 1012.6 |
| 20260502103517 | 55 | 270 | 0.0 | 3.0 | 0.01 | 0.25 | 0.24 | 96 | 1012.6 |
| 20260502103019 | 55 | 248 | 2.0 | 4.0 | 0.01 | 0.25 | 0.24 | 96 | 1012.7 |
| 20260502102517 | 55 | 248 | 1.0 | 3.0 | 0.01 | 0.24 | 0.23 | 96 | 1012.4 |
| 20260502102017 | 55 | 248 | 1.0 | 3.0 | 0.01 | 0.24 | 0.23 | 96 | 1012.2 |
| 20260502101517 | 55 | 248 | 1.0 | 3.0 | 0.01 | 0.24 | 0.23 | 96 | 1012.1 |
| 20260502101018 | 55 | 248 | 0.0 | 1.0 | 0.01 | 0.24 | 0.23 | 96 | 1011.9 |
| 20260502100522 | 55 | 248 | 0.0 | 2.0 | 0.01 | 0.24 | 0.23 | 96 | 1012.0 |
| 20260502091517 | 55 | 153 | 0.0 | 0.0 | 0.01 | 0.23 | 0.22 | 96 | 1011.9 |
| 20260502091017 | 55 | 153 | 0.0 | 0.0 | 0.02 | 0.23 | 0.22 | 96 | 1012.0 |
| 20260502090517 | 55 | 153 | 0.0 | 0.0 | 0.02 | 0.23 | 0.22 | 96 | 1011.9 |
| 20260502071517 | 57 | 259 | 0.0 | 0.0 | 0.07 | 0.19 | 0.18 | 95 | 1012.6 |
| 20260502071017 | 57 | 259 | 0.0 | 0.0 | 0.08 | 0.19 | 0.18 | 95 | 1012.8 |
| 20260502070537 | 57 | 259 | 0.0 | 0.0 | 0.08 | 0.19 | 0.18 | 95 | 1012.8 |
| 20260502070017 | 57 | 259 | 0.0 | 0.0 | 0.08 | 0.18 | 0.17 | 95 | 1013.0 |
| 20260502065518 | 57 | 259 | 0.0 | 0.0 | 0.08 | 0.18 | 0.17 | 95 | 1013.1 |
| 20260502065037 | 57 | 259 | 0.0 | 0.0 | 0.08 | 0.17 | 0.16 | 95 | 1013.3 |
| 20260502064517 | 57 | 259 | 0.0 | 0.0 | 0.07 | 0.16 | 0.15 | 95 | 1013.5 |
| 20260502064037 | 57 | 259 | 0.0 | 0.0 | 0.06 | 0.15 | 0.14 | 95 | 1013.6 |
| 20260502063516 | 57 | 259 | 0.0 | 0.0 | 0.06 | 0.15 | 0.14 | 95 | 1013.9 |
| 20260502063016 | 57 | 259 | 0.0 | 0.0 | 0.06 | 0.14 | 0.13 | 95 | 1014.0 |
| 20260502062517 | 57 | 259 | 0.0 | 0.0 | 0.05 | 0.13 | 0.12 | 95 | 1013.8 |
| 20260502062117 | 57 | 259 | 0.0 | 0.0 | 0.06 | 0.13 | 0.12 | 95 | 1013.9 |
| 20260502061536 | 57 | 259 | 0.0 | 0.0 | 0.05 | 0.12 | 0.11 | 95 | 1013.9 |
| 20260502061017 | 57 | 259 | 0.0 | 0.0 | 0.04 | 0.11 | 0.10 | 95 | 1014.0 |
| 20260502060517 | 58 | 259 | 0.0 | 0.0 | 0.04 | 0.11 | 0.10 | 95 | 1014.0 |
| 20260502060016 | 58 | 259 | 0.0 | 0.0 | 0.04 | 0.10 | 0.09 | 95 | 1014.3 |
| 20260502055516 | 58 | 259 | 0.0 | 0.0 | 0.04 | 0.10 | 0.09 | 95 | 1014.4 |
| 20260502055016 | 58 | 259 | 0.0 | 0.0 | 0.04 | 0.09 | 0.08 | 95 | 1014.3 |
| 20260502054516 | 58 | 259 | 0.0 | 0.0 | 0.04 | 0.09 | 0.08 | 95 | 1014.3 |
| 20260502054017 | 58 | 259 | 0.0 | 0.0 | 0.04 | 0.09 | 0.08 | 94 | 1014.2 |
| 20260502053516 | 58 | 259 | 0.0 | 0.0 | 0.05 | 0.09 | 0.08 | 94 | 1014.0 |
| 20260502053016 | 58 | 259 | 0.0 | 0.0 | 0.04 | 0.08 | 0.07 | 94 | 1013.8 |
| 20260502052516 | 58 | 259 | 0.0 | 0.0 | 0.05 | 0.08 | 0.07 | 94 | 1013.8 |
| 20260502052016 | 58 | 259 | 0.0 | 0.0 | 0.04 | 0.07 | 0.06 | 94 | 1013.9 |
| 20260502051537 | 58 | 259 | 0.0 | 0.0 | 0.04 | 0.07 | 0.06 | 94 | 1013.7 |
| 20260502051016 | 58 | 259 | 0.0 | 0.0 | 0.04 | 0.07 | 0.06 | 94 | 1013.6 |
| 20260502050517 | 58 | 259 | 0.0 | 0.0 | 0.05 | 0.07 | 0.06 | 94 | 1013.6 |
| 20260502050036 | 58 | 259 | 0.0 | 0.0 | 0.05 | 0.06 | 0.05 | 94 | 1013.7 |
| 20260502045536 | 58 | 259 | 0.0 | 0.0 | 0.05 | 0.06 | 0.05 | 94 | 1013.8 |
| 20260502045016 | 58 | 259 | 0.0 | 0.0 | 0.04 | 0.05 | 0.04 | 94 | 1013.8 |
| 20260502044516 | 58 | 259 | 0.0 | 0.0 | 0.04 | 0.05 | 0.04 | 93 | 1013.6 |
| 20260502044016 | 58 | 259 | 0.0 | 0.0 | 0.04 | 0.05 | 0.04 | 93 | 1013.7 |
| 20260502043517 | 59 | 259 | 0.0 | 0.0 | 0.03 | 0.04 | 0.03 | 93 | 1013.8 |
| 20260502043016 | 59 | 270 | 0.0 | 1.0 | 0.03 | 0.04 | 0.03 | 93 | 1014.0 |
| 20260502042516 | 59 | 259 | 0.0 | 0.0 | 0.02 | 0.03 | 0.02 | 94 | 1014.1 |
| 20260502042016 | 59 | 259 | 0.0 | 0.0 | 0.02 | 0.03 | 0.02 | 93 | 1014.2 |
| 20260502041536 | 59 | 259 | 0.0 | 0.0 | 0.02 | 0.03 | 0.02 | 93 | 1014.3 |
| 20260502041016 | 59 | 259 | 0.0 | 0.0 | 0.02 | 0.03 | 0.02 | 93 | 1014.4 |
| 20260502040516 | 59 | 270 | 0.0 | 2.0 | 0.02 | 0.02 | 0.01 | 93 | 1014.6 |
| 20260502040016 | 59 | 248 | 0.0 | 2.0 | 0.01 | 0.01 | 0.01 | 93 | 1014.7 |
| 20260502035517 | 59 | 248 | 0.0 | 1.0 | 0.01 | 0.01 | 0.01 | 93 | 1014.8 |
| 20260502035100 | 59 | 257 | 0.0 | 0.0 | 0.01 | 0.01 | 0.01 | 93 | 1014.6 |
| 20260502034536 | 59 | 248 | 0.0 | 1.0 | 0.01 | 0.01 | 0.01 | 93 | 1014.5 |
| 20260502034016 | 59 | 257 | 0.0 | 0.0 | 0.01 | 0.01 | 0.01 | 92 | 1014.4 |
| 20260502033537 | 59 | 257 | 0.0 | 0.0 | 0.01 | 0.01 | 0.01 | 92 | 1014.3 |
| 20260502033037 | 59 | 257 | 0.0 | 0.0 | 0.01 | 0.01 | 0.01 | 92 | 1014.3 |
| 20260502032517 | 59 | 257 | 0.0 | 0.0 | 0.01 | 0.01 | 0.01 | 92 | 1014.1 |
| 20260502032017 | 60 | 257 | 0.0 | 0.0 | 0.01 | 0.01 | 0.01 | 91 | 1014.2 |
| 20260502031537 | 60 | 257 | 0.0 | 0.0 | 0.01 | 0.01 | 0.01 | 91 | 1014.3 |
| 20260502031016 | 60 | 248 | 0.0 | 1.0 | 0.01 | 0.01 | 0.01 | 91 | 1014.4 |
| 20260502030536 | 60 | 257 | 0.0 | 0.0 | 0.00 | 0.00 | 0.00 | 91 | 1014.4 |
| 20260502030016 | 60 | 257 | 0.0 | 0.0 | 0.00 | 0.00 | 0.00 | 91 | 1014.3 |
| 20260502025536 | 60 | 257 | 0.0 | 0.0 | 0.00 | 0.00 | 0.00 | 90 | 1014.0 |
| 20260502025017 | 60 | 257 | 0.0 | 0.0 | 0.00 | 0.00 | 0.00 | 90 | 1014.0 |
| 20260502024516 | 60 | 257 | 0.0 | 0.0 | 0.00 | 0.00 | 0.00 | 89 | 1013.8 |
| 20260502024037 | 60 | 257 | 0.0 | 0.0 | 0.00 | 0.00 | 0.00 | 88 | 1013.6 |
| 20260502023516 | 61 | 257 | 0.0 | 0.0 | 0.00 | 0.00 | 0.00 | 88 | 1013.7 |
| 20260502023016 | 61 | 257 | 0.0 | 0.0 | 0.00 | 0.00 | 0.00 | 88 | 1013.8 |
| 20260502022536 | 61 | 257 | 0.0 | 0.0 | 0.00 | 0.00 | 0.00 | 87 | 1013.9 |
| 20260502022016 | 61 | 257 | 0.0 | 0.0 | 0.00 | 0.00 | 0.00 | 86 | 1013.9 |
| 20260502021537 | 61 | 257 | 0.0 | 0.0 | 0.00 | 0.00 | 0.00 | 86 | 1013.9 |
| 20260502021037 | 61 | 248 | 0.0 | 1.0 | 0.00 | 0.00 | 0.00 | 85 | 1014.0 |
| 20260502020516 | 61 | 248 | 0.0 | 1.0 | 0.00 | 0.00 | 0.00 | 85 | 1014.0 |
| 20260502020038 | 61 | 338 | 0.0 | 1.0 | 0.00 | 0.00 | 0.00 | 86 | 1014.0 |
| 20260502015536 | 61 | 348 | 0.0 | 0.0 | 0.00 | 0.00 | 0.00 | 85 | 1013.9 |
| 20260502015036 | 61 | 348 | 0.0 | 0.0 | 0.00 | 0.00 | 0.00 | 85 | 1013.7 |
| 20260502014536 | 61 | 348 | 0.0 | 0.0 | 0.00 | 0.00 | 0.00 | 85 | 1013.6 |
| 20260502014036 | 61 | 348 | 0.0 | 0.0 | 0.00 | 0.00 | 0.00 | 85 | 1013.5 |
| 20260502013516 | 61 | 348 | 0.0 | 0.0 | 0.00 | 0.00 | 0.00 | 84 | 1013.2 |
| 20260502013016 | 61 | 348 | 0.0 | 0.0 | 0.00 | 0.00 | 0.00 | 84 | 1013.2 |
| 20260502012516 | 61 | 348 | 0.0 | 0.0 | 0.00 | 0.00 | 0.00 | 84 | 1013.2 |
| 20260502012016 | 61 | 348 | 0.0 | 0.0 | 0.00 | 0.00 | 0.00 | 84 | 1013.1 |
| 20260502011517 | 61 | 348 | 0.0 | 0.0 | 0.00 | 0.00 | 0.00 | 83 | 1013.2 |
| 20260502011016 | 61 | 348 | 0.0 | 0.0 | 0.00 | 0.00 | 0.00 | 83 | 1013.2 |
| 20260502010516 | 61 | 348 | 0.0 | 0.0 | 0.00 | 0.00 | 0.00 | 82 | 1013.2 |
| 20260502010016 | 62 | 348 | 0.0 | 0.0 | 0.00 | 0.00 | 0.00 | 82 | 1013.1 |
| 20260502005516 | 62 | 348 | 0.0 | 0.0 | 0.00 | 0.00 | 0.00 | 81 | 1013.0 |
| 20260502005037 | 62 | 348 | 0.0 | 0.0 | 0.00 | 0.00 | 0.00 | 81 | 1013.0 |
| 20260502004516 | 62 | 348 | 0.0 | 0.0 | 0.00 | 0.00 | 0.00 | 81 | 1013.0 |
| 20260502004016 | 62 | 348 | 0.0 | 0.0 | 0.00 | 0.00 | 0.00 | 81 | 1012.8 |
| 20260502003538 | 62 | 348 | 0.0 | 0.0 | 0.00 | 0.00 | 0.00 | 81 | 1012.7 |
| 20260502003016 | 62 | 348 | 0.0 | 0.0 | 0.00 | 0.00 | 0.00 | 81 | 1012.7 |
| 20260502002536 | 63 | 348 | 0.0 | 0.0 | 0.00 | 0.00 | 0.00 | 79 | 1012.5 |
| 20260502002016 | 63 | 348 | 0.0 | 0.0 | 0.00 | 0.00 | 0.00 | 78 | 1012.6 |
| 20260502001516 | 63 | 348 | 0.0 | 0.0 | 0.00 | 0.00 | 0.00 | 79 | 1012.7 |
| 20260502001016 | 64 | 348 | 0.0 | 0.0 | 0.00 | 0.00 | 0.00 | 78 | 1012.8 |
| 20260502000516 | 64 | 348 | 0.0 | 0.0 | 0.00 | 0.00 | 0.00 | 77 | 1012.8 |
| 20260502000016 | 64 | 348 | 0.0 | 0.0 | 0.00 | 0.00 | 0.00 | 77 | 1012.8 |
| 20260501235536 | 64 | 348 | 0.0 | 0.0 | 0.00 | 0.00 | 0.00 | 77 | 1012.8 |
| 20260501235016 | 64 | 348 | 0.0 | 0.0 | 0.00 | 0.00 | 0.00 | 75 | 1012.6 |
| 20260501234516 | 65 | 348 | 0.0 | 0.0 | 0.00 | 0.00 | 0.00 | 74 | 1012.6 |
| 20260501234016 | 65 | 348 | 0.0 | 0.0 | 0.00 | 0.00 | 0.00 | 73 | 1012.6 |
| 20260501233516 | 65 | 348 | 0.0 | 0.0 | 0.00 | 0.00 | 0.00 | 74 | 1012.7 |
| 20260501233016 | 65 | 348 | 0.0 | 0.0 | 0.00 | 0.00 | 0.00 | 74 | 1012.7 |
| 20260501232518 | 65 | 348 | 0.0 | 0.0 | 0.00 | 0.00 | 0.00 | 73 | 1012.7 |
| 20260501232016 | 65 | 348 | 0.0 | 0.0 | 0.00 | 0.00 | 0.00 | 72 | 1012.7 |
| 20260501231516 | 66 | 348 | 0.0 | 0.0 | 0.00 | 0.00 | 0.00 | 72 | 1012.5 |
| 20260501231016 | 66 | 348 | 0.0 | 0.0 | 0.00 | 0.00 | 0.00 | 71 | 1012.5 |
| 20260501230520 | 66 | 348 | 0.0 | 0.0 | 0.00 | 0.00 | 0.00 | 70 | 1012.3 |